• In Hungary
  • List of Countries
  • For 7 days
  • Water Temperature
  • Satellite Maps
  • Weather Map
  • News
  • Weather Widgets
  • user-avatar
    Login

    Hourly Weather San Kamphaeng

    Today, 25 June, Monday

    Time Temperature Precipitation Wind Pressure Humidity
    00:00 +26°C° 0.3 mm 1 mps 728 mmHg 92%
    01:00 +26°C° 0.3 mm 1 mps 728 mmHg 93%
    02:00 +26°C° 0.5 mm 1 mps 728 mmHg 93%
    03:00 +25°C° 0.5 mm 1 mps 728 mmHg 94%
    04:00 +25°C° 0.5 mm 1 mps 727 mmHg 94%
    05:00 +25°C° 0.4 mm 1 mps 727 mmHg 94%
    06:00 +25°C° 0.4 mm 1 mps 728 mmHg 94%
    07:00 +25°C° 0.4 mm 1 mps 728 mmHg 93%
    08:00 +26°C° 0.3 mm 1 mps 728 mmHg 90%
    09:00 +27°C° 0.3 mm 1 mps 728 mmHg 87%
    10:00 +28°C° 0.3 mm 1 mps 728 mmHg 84%
    11:00 +28°C° 0.4 mm 1 mps 728 mmHg 82%
    12:00 +29°C° 0.4 mm 1 mps 728 mmHg 81%
    13:00 +29°C° 0.4 mm 1 mps 728 mmHg 79%
    14:00 +29°C° 0.8 mm 1 mps 727 mmHg 80%
    15:00 +29°C° 0.8 mm 1 mps 727 mmHg 82%
    16:00 +29°C° 0.8 mm 1 mps 727 mmHg 83%
    17:00 +28°C° 1.3 mm 1 mps 727 mmHg 87%
    18:00 +27°C° 1.3 mm 1 mps 727 mmHg 91%
    19:00 +26°C° 1.3 mm 1 mps 727 mmHg 95%
    20:00 +26°C° 0.4 mm 1 mps 727 mmHg 95%
    21:00 +26°C° 0.4 mm 1 mps 728 mmHg 96%
    22:00 +26°C° 0.4 mm 1 mps 728 mmHg 96%
    23:00 +25°C° 1.2 mm 1 mps 728 mmHg 96%

    Tomorrow, 26 June, Tuesday

    Time Temperature Precipitation Wind Pressure Humidity
    00:00 +25°C° 1.2 mm 1 mps 728 mmHg 96%
    01:00 +25°C° 1.2 mm 1 mps 728 mmHg 97%
    02:00 +25°C° 1.4 mm 1 mps 728 mmHg 97%
    03:00 +25°C° 1.4 mm 1 mps 727 mmHg 97%
    04:00 +25°C° 1.4 mm 1 mps 727 mmHg 97%
    05:00 +25°C° 1.1 mm 1 mps 727 mmHg 97%
    06:00 +25°C° 1.1 mm 1 mps 728 mmHg 97%
    07:00 +25°C° 1.1 mm 1 mps 728 mmHg 97%
    08:00 +25°C° 0.7 mm 1 mps 728 mmHg 95%
    09:00 +26°C° 0.7 mm 1 mps 729 mmHg 94%
    10:00 +26°C° 0.7 mm 1 mps 729 mmHg 92%
    11:00 +26°C° 1 mm 1 mps 729 mmHg 92%
    12:00 +26°C° 1 mm 2 mps 729 mmHg 92%
    13:00 +26°C° 1 mm 2 mps 729 mmHg 91%
    14:00 +26°C° 1.3 mm 2 mps 728 mmHg 92%
    15:00 +26°C° 1.3 mm 1 mps 728 mmHg 93%
    16:00 +26°C° 1.3 mm 1 mps 728 mmHg 94%
    17:00 +25°C° 1.7 mm 1 mps 728 mmHg 95%
    18:00 +25°C° 1.7 mm 1 mps 728 mmHg 96%
    19:00 +25°C° 1.7 mm 1 mps 728 mmHg 97%
    20:00 +25°C° 0.8 mm 1 mps 729 mmHg 97%
    21:00 +25°C° 0.8 mm 1 mps 729 mmHg 97%
    22:00 +25°C° 0.8 mm 1 mps 730 mmHg 97%
    23:00 +25°C° 0.6 mm 1 mps 730 mmHg 97%

    Day after tomorrow, 27 June, Wednesday

    Time Temperature Precipitation Wind Pressure Humidity
    00:00 +25°C° 0.6 mm 1 mps 729 mmHg 97%
    01:00 +25°C° 0.6 mm 1 mps 729 mmHg 97%
    02:00 +25°C° 1.4 mm 1 mps 729 mmHg 97%
    03:00 +23°C° 1.4 mm 0 mps 729 mmHg 97%
    04:00 +23°C° 1.4 mm 0 mps 728 mmHg 97%
    05:00 +23°C° 1.9 mm 0 mps 729 mmHg 97%
    06:00 +23°C° 1.9 mm 0 mps 729 mmHg 97%
    07:00 +23°C° 1.9 mm 0 mps 729 mmHg 97%
    08:00 +25°C° 1.4 mm 1 mps 729 mmHg 96%
    09:00 +25°C° 1.4 mm 1 mps 730 mmHg 96%
    10:00 +25°C° 1.4 mm 1 mps 730 mmHg 95%
    11:00 +26°C° 1.3 mm 1 mps 730 mmHg 94%
    12:00 +26°C° 1.3 mm 1 mps 730 mmHg 93%
    13:00 +26°C° 1.3 mm 1 mps 730 mmHg 92%
    14:00 +27°C° 0.6 mm 1 mps 730 mmHg 90%
    15:00 +27°C° 0.6 mm 1 mps 729 mmHg 89%
    16:00 +27°C° 0.6 mm 1 mps 729 mmHg 87%
    17:00 +27°C° 0.5 mm 1 mps 729 mmHg 90%
    18:00 +24°C° 0.5 mm 0 mps 729 mmHg 93%
    19:00 +24°C° 0.5 mm 0 mps 729 mmHg 95%
    20:00 +23°C° 0.6 mm 0 mps 730 mmHg 96%
    21:00 +23°C° 0.6 mm 0 mps 730 mmHg 96%
    22:00 +23°C° 0.6 mm 0 mps 731 mmHg 97%
    23:00 +23°C° 1.1 mm 0 mps 731 mmHg 97%

    28 June, Thursday

    Time Temperature Precipitation Wind Pressure Humidity
    00:00 +23°C° 1.1 mm 0 mps 730 mmHg 97%
    01:00 +23°C° 1.1 mm 0 mps 730 mmHg 98%
    02:00 +22°C° 1.1 mm 0 mps 730 mmHg 98%
    03:00 +22°C° 1.1 mm 0 mps 730 mmHg 98%
    04:00 +22°C° 1.1 mm 0 mps 729 mmHg 98%
    05:00 +22°C° 0.8 mm 0 mps 730 mmHg 98%
    06:00 +22°C° 0.8 mm 0 mps 730 mmHg 97%
    07:00 +23°C° 0.8 mm 0 mps 730 mmHg 97%
    08:00 +23°C° 0.7 mm 0 mps 731 mmHg 95%
    09:00 +24°C° 0.7 mm 0 mps 731 mmHg 93%
    10:00 +25°C° 0.7 mm 0 mps 731 mmHg 91%
    11:00 +25°C° 0.5 mm 0 mps 731 mmHg 87%
    12:00 +26°C° 0.5 mm 0 mps 730 mmHg 84%
    13:00 +27°C° 0.5 mm 0 mps 730 mmHg 80%
    14:00 +27°C° 0.3 mm 0 mps 729 mmHg 81%
    15:00 +27°C° 0.3 mm 0 mps 729 mmHg 81%
    16:00 +27°C° 0.3 mm 0 mps 728 mmHg 81%
    17:00 +26°C° 0 mm 0 mps 728 mmHg 84%
    18:00 +25°C° 0 mm 0 mps 728 mmHg 87%
    19:00 +24°C° 0 mm 0 mps 728 mmHg 90%
    20:00 +24°C° 0.1 mm 0 mps 729 mmHg 90%
    21:00 +24°C° 0.1 mm 0 mps 730 mmHg 90%
    22:00 +24°C° 0.1 mm 0 mps 730 mmHg 91%
    23:00 +23°C° 0.1 mm 0 mps 730 mmHg 91%

    29 June, Friday

    Time Temperature Precipitation Wind Pressure Humidity
    00:00 +23°C° 0.1 mm 0 mps 730 mmHg 92%
    01:00 +23°C° 0.1 mm 0 mps 729 mmHg 93%
    02:00 +23°C° 0.1 mm 0 mps 729 mmHg 93%
    03:00 +23°C° 0.1 mm 0 mps 729 mmHg 93%
    04:00 +23°C° 0.1 mm 0 mps 728 mmHg 93%
    05:00 +23°C° 0 mm 0 mps 729 mmHg 92%
    06:00 +23°C° 0 mm 0 mps 729 mmHg 92%
    07:00 +23°C° 0 mm 0 mps 729 mmHg 91%
    08:00 +25°C° 0 mm 0 mps 730 mmHg 85%
    09:00 +27°C° 0 mm 0 mps 730 mmHg 78%
    10:00 +28°C° 0 mm 0 mps 730 mmHg 72%
    11:00 +31°C° 0 mm 1 mps 730 mmHg 66%
    12:00 +32°C° 0 mm 1 mps 729 mmHg 61%
    13:00 +33°C° 0 mm 1 mps 729 mmHg 55%
    14:00 +33°C° 0.1 mm 1 mps 728 mmHg 56%
    15:00 +33°C° 0.1 mm 1 mps 727 mmHg 57%
    16:00 +33°C° 0.1 mm 1 mps 727 mmHg 58%
    17:00 +32°C° 0.2 mm 1 mps 727 mmHg 66%
    18:00 +30°C° 0.2 mm 1 mps 727 mmHg 74%
    19:00 +28°C° 0.2 mm 1 mps 727 mmHg 83%
    20:00 +27°C° 0 mm 1 mps 728 mmHg 85%
    21:00 +27°C° 0 mm 1 mps 728 mmHg 87%
    22:00 +26°C° 0 mm 1 mps 729 mmHg 89%
    23:00 +24°C° 0 mm 0 mps 728 mmHg 90%

    30 June, Saturday

    Time Temperature Precipitation Wind Pressure Humidity
    00:00 +24°C° 0 mm 0 mps 728 mmHg 91%
    01:00 +23°C° 0 mm 0 mps 728 mmHg 92%
    02:00 +23°C° 0 mm 0 mps 728 mmHg 92%
    03:00 +23°C° 0 mm 0 mps 728 mmHg 92%
    04:00 +23°C° 0 mm 0 mps 727 mmHg 92%
    05:00 +23°C° 0 mm 0 mps 728 mmHg 90%
    06:00 +23°C° 0 mm 0 mps 728 mmHg 89%
    07:00 +24°C° 0 mm 0 mps 728 mmHg 88%
    08:00 +25°C° 0 mm 0 mps 729 mmHg 81%
    09:00 +27°C° 0 mm 0 mps 729 mmHg 73%
    10:00 +29°C° 0 mm 0 mps 729 mmHg 66%
    11:00 +32°C° 0.2 mm 1 mps 729 mmHg 63%
    12:00 +33°C° 0.2 mm 1 mps 729 mmHg 60%
    13:00 +34°C° 0.2 mm 1 mps 728 mmHg 57%
    14:00 +33°C° 0.5 mm 1 mps 728 mmHg 60%
    15:00 +33°C° 0.5 mm 1 mps 727 mmHg 63%
    16:00 +32°C° 0.5 mm 1 mps 727 mmHg 67%
    17:00 +31°C° 0.7 mm 1 mps 727 mmHg 72%
    18:00 +30°C° 0.7 mm 1 mps 727 mmHg 78%
    19:00 +28°C° 0.7 mm 1 mps 727 mmHg 84%
    20:00 +28°C° 0.4 mm 1 mps 728 mmHg 86%
    21:00 +27°C° 0.4 mm 1 mps 728 mmHg 87%
    22:00 +27°C° 0.4 mm 1 mps 728 mmHg 89%
    23:00 +26°C° 0.1 mm 1 mps 728 mmHg 90%
    Show more